Location: Unspecified
(48.8656°N, 0.0000°E)
Time: 18:47:39
(UTC+00:00)

Transit 2A Rocket - Pass Details

Date: 20 June 2019
Orbit: 588 x 915 km, 66.7° (Epoch: 18 July)

Event Time Altitude Azimuth Distance (km) Brightness Sun altitude
Rises 13:38:58 0° 279° (W) 3,532 8.7 58.1°
Reaches altitude 10° 13:42:30 10° 299° (WNW) 2,562 8.0 57.7°
Maximum altitude 13:46:18 17° 338° (NNW) 2,056 7.3 57.3°
Drops below altitude 10° 13:49:58 10° 18° (NNE) 2,459 7.5 56.8°
Sets 13:53:16 0° 39° (NE) 3,330 8.0 56.4°
